owner,sensor,date,latitude,longitude,vertical_datum,wind_speed,wind_to_direction,wind_speed_of_gust,qcFlag 
COMPS,ioos:station:USF.COMPS:SHP:1,2016-08-01T00:00:00Z,30.0600,-84.2910,10.0,0.09,289.75,0.09,'1111122,1111122,1111122' 
COMPS,ioos:station:USF.COMPS:SHP:1,2016-08-01T00:06:00Z,30.0600,-84.2910,10.0,0.09,309.26,0.09,'1111122,1111122,1111122' 
COMPS,ioos:station:USF.COMPS:SHP:1,2016-08-01T00:12:00Z,30.0600,-84.2910,10.0,0.09,328.75,0.09,'1111122,1111122,1111122' 
COMPS,ioos:station:USF.COMPS:SHP:1,2016-08-01T00:18:00Z,30.0600,-84.2910,10.0,0.09,327.35,0.09,'1111122,1111122,1111122' 
COMPS,ioos:station:USF.COMPS:SHP:1,2016-08-01T00:24:00Z,30.0600,-84.2910,10.0,0.1,348.99,0.29,'1111122,1111122,1111122' 
COMPS,ioos:station:USF.COMPS:SHP:1,2016-08-01T00:30:00Z,30.0600,-84.2910,10.0,0.09,358.66,0.09,'1111122,1111122,1111122' 
COMPS,ioos:station:USF.COMPS:SHP:1,2016-08-01T00:36:00Z,30.0600,-84.2910,10.0,0.09,338.41,0.09,'1111122,1111122,1111122' 
COMPS,ioos:station:USF.COMPS:SHP:1,2016-08-01T00:42:00Z,30.0600,-84.2910,10.0,0.09,344.6,0.09,'1111122,1111122,1111122' 
COMPS,ioos:station:USF.COMPS:SHP:1,2016-08-01T00:48:00Z,30.0600,-84.2910,10.0,0.09,340.35,0.09,'1111122,1111122,1111122' 
COMPS,ioos:station:USF.COMPS:SHP:1,2016-08-01T00:54:00Z,30.0600,-84.2910,10.0,0.09,341.9,0.09,'1111122,1111122,1111122' 
COMPS,ioos:station:USF.COMPS:SHP:1,2016-08-01T01:00:00Z,30.0600,-84.2910,10.0,0.09,325.85,0.09,'1111122,1111122,1111122' 
COMPS,ioos:station:USF.COMPS:SHP:1,2016-08-01T01:06:00Z,30.0600,-84.2910,10.0,0.09,322.36,0.09,'1111122,1111122,1111122' 
COMPS,ioos:station:USF.COMPS:SHP:1,2016-08-01T01:12:00Z,30.0600,-84.2910,10.0,0.09,335.41,0.09,'1111122,1111122,1111122' 
COMPS,ioos:station:USF.COMPS:SHP:1,2016-08-01T01:18:00Z,30.0600,-84.2910,10.0,0.1,346.95,0.19,'1111122,1111122,1111122' 
COMPS,ioos:station:USF.COMPS:SHP:1,2016-08-01T01:24:00Z,30.0600,-84.2910,10.0,0.09,0.23,0.09,'1111122,1111122,1111122' 
COMPS,ioos:station:USF.COMPS:SHP:1,2016-08-01T01:30:00Z,30.0600,-84.2910,10.0,0.09,17.67,0.09,'1111122,1111122,1111122' 
COMPS,ioos:station:USF.COMPS:SHP:1,2016-08-01T01:36:00Z,30.0600,-84.2910,10.0,0.09,11.39,0.09,'1111122,1111122,1111122' 
COMPS,ioos:station:USF.COMPS:SHP:1,2016-08-01T01:42:00Z,30.0600,-84.2910,10.0,0.09,16.1,0.09,'1111122,1111122,1111122' 
COMPS,ioos:station:USF.COMPS:SHP:1,2016-08-01T01:48:00Z,30.0600,-84.2910,10.0,0.09,35.76,0.09,'1111122,1111122,1111122' 
COMPS,ioos:station:USF.COMPS:SHP:1,2016-08-01T01:54:00Z,30.0600,-84.2910,10.0,0.09,35.48,0.09,'1111122,1111122,1111122' 
COMPS,ioos:station:USF.COMPS:SHP:1,2016-08-01T02:00:00Z,30.0600,-84.2910,10.0,0.09,42.1,0.09,'1111122,1111122,1111122' 
COMPS,ioos:station:USF.COMPS:SHP:1,2016-08-01T02:06:00Z,30.0600,-84.2910,10.0,0.09,18.77,0.09,'1111122,1111122,1111122' 
COMPS,ioos:station:USF.COMPS:SHP:1,2016-08-01T02:12:00Z,30.0600,-84.2910,10.0,0.09,5.59,0.09,'1111122,1111122,1111122' 
COMPS,ioos:station:USF.COMPS:SHP:1,2016-08-01T02:18:00Z,30.0600,-84.2910,10.0,0.09,14.25,0.09,'1111122,1111122,1111122' 
COMPS,ioos:station:USF.COMPS:SHP:1,2016-08-01T02:24:00Z,30.0600,-84.2910,10.0,0.09,22.57,0.09,'1111122,1111122,1111122' 
COMPS,ioos:station:USF.COMPS:SHP:1,2016-08-01T02:30:00Z,30.0600,-84.2910,10.0,0.09,40.66,0.09,'1111122,1111122,1111122' 
COMPS,ioos:station:USF.COMPS:SHP:1,2016-08-01T02:36:00Z,30.0600,-84.2910,10.0,0.09,25.07,0.09,'1111122,1111122,1111122' 
COMPS,ioos:station:USF.COMPS:SHP:1,2016-08-01T02:42:00Z,30.0600,-84.2910,10.0,0.09,43.57,0.09,'1111122,1111122,1111122' 
COMPS,ioos:station:USF.COMPS:SHP:1,2016-08-01T02:48:00Z,30.0600,-84.2910,10.0,0.09,63.96,0.09,'1111122,1111122,1111122' 
COMPS,ioos:station:USF.COMPS:SHP:1,2016-08-01T02:54:00Z,30.0600,-84.2910,10.0,0.09,59.49,0.09,'1111122,1111122,1111122' 
COMPS,ioos:station:USF.COMPS:SHP:1,2016-08-01T03:00:00Z,30.0600,-84.2910,10.0,0.09,15.86,0.09,'1111122,1111122,1111122' 
COMPS,ioos:station:USF.COMPS:SHP:1,2016-08-01T03:06:00Z,30.0600,-84.2910,10.0,0.09,9.98,0.09,'1111122,1111122,1111122' 
COMPS,ioos:station:USF.COMPS:SHP:1,2016-08-01T03:12:00Z,30.0600,-84.2910,10.0,0.09,32.84,0.09,'1111122,1111122,1111122' 
COMPS,ioos:station:USF.COMPS:SHP:1,2016-08-01T03:18:00Z,30.0600,-84.2910,10.0,0.09,75.82,0.09,'1111122,1111122,1111122' 
COMPS,ioos:station:USF.COMPS:SHP:1,2016-08-01T03:24:00Z,30.0600,-84.2910,10.0,0.09,60.85,0.09,'1111122,1111122,1111122' 
COMPS,ioos:station:USF.COMPS:SHP:1,2016-08-01T03:30:00Z,30.0600,-84.2910,10.0,0.09,53.14,0.09,'1111122,1111122,1111122' 
COMPS,ioos:station:USF.COMPS:SHP:1,2016-08-01T03:36:00Z,30.0600,-84.2910,10.0,0.09,83.13,0.09,'1111122,1111122,1111122' 
COMPS,ioos:station:USF.COMPS:SHP:1,2016-08-01T03:42:00Z,30.0600,-84.2910,10.0,0.09,55.16,0.09,'1111122,1111122,1111122' 
COMPS,ioos:station:USF.COMPS:SHP:1,2016-08-01T03:48:00Z,30.0600,-84.2910,10.0,0.09,35.75,0.09,'1111122,1111122,1111122' 
COMPS,ioos:station:USF.COMPS:SHP:1,2016-08-01T03:54:00Z,30.0600,-84.2910,10.0,0.09,43.91,0.09,'1111122,1111122,1111122' 
COMPS,ioos:station:USF.COMPS:SHP:1,2016-08-01T04:00:00Z,30.0600,-84.2910,10.0,0.09,25.95,0.09,'1111122,1111122,1111122' 
COMPS,ioos:station:USF.COMPS:SHP:1,2016-08-01T04:06:00Z,30.0600,-84.2910,10.0,0.09,33.3,0.09,'1111122,1111122,1111122' 
COMPS,ioos:station:USF.COMPS:SHP:1,2016-08-01T04:12:00Z,30.0600,-84.2910,10.0,0.09,0.88,0.09,'1111122,1111122,1111122' 
COMPS,ioos:station:USF.COMPS:SHP:1,2016-08-01T04:18:00Z,30.0600,-84.2910,10.0,0.09,20.19,0.09,'1111122,1111122,1111122' 
COMPS,ioos:station:USF.COMPS:SHP:1,2016-08-01T04:24:00Z,30.0600,-84.2910,10.0,0.1,17.34,0.19,'1111122,1111122,1111122' 
COMPS,ioos:station:USF.COMPS:SHP:1,2016-08-01T04:30:00Z,30.0600,-84.2910,10.0,0.09,46.05,0.09,'1111122,1111122,1111122' 
COMPS,ioos:station:USF.COMPS:SHP:1,2016-08-01T04:36:00Z,30.0600,-84.2910,10.0,0.09,26.21,0.09,'1111122,1111122,1111122' 
COMPS,ioos:station:USF.COMPS:SHP:1,2016-08-01T04:42:00Z,30.0600,-84.2910,10.0,0.09,3.77,0.09,'1111122,1111122,1111122' 
COMPS,ioos:station:USF.COMPS:SHP:1,2016-08-01T04:48:00Z,30.0600,-84.2910,10.0,0.09,15.57,0.09,'1111122,1111122,1111122' 
COMPS,ioos:station:USF.COMPS:SHP:1,2016-08-01T04:54:00Z,30.0600,-84.2910,10.0,0.09,357.91,0.09,'1111122,1111122,1111122' 
COMPS,ioos:station:USF.COMPS:SHP:1,2016-08-01T05:00:00Z,30.0600,-84.2910,10.0,0.09,6.26,0.09,'1111122,1111122,1111122' 
COMPS,ioos:station:USF.COMPS:SHP:1,2016-08-01T05:06:00Z,30.0600,-84.2910,10.0,0.09,4.45,0.09,'1111122,1111122,1111122' 
COMPS,ioos:station:USF.COMPS:SHP:1,2016-08-01T05:12:00Z,30.0600,-84.2910,10.0,0.09,13.68,0.09,'1111122,1111122,1111122' 
COMPS,ioos:station:USF.COMPS:SHP:1,2016-08-01T05:18:00Z,30.0600,-84.2910,10.0,0.09,22.97,0.09,'1111122,1111122,1111122' 
COMPS,ioos:station:USF.COMPS:SHP:1,2016-08-01T05:24:00Z,30.0600,-84.2910,10.0,0.09,49.9,0.09,'1111122,1111122,1111122' 
COMPS,ioos:station:USF.COMPS:SHP:1,2016-08-01T05:30:00Z,30.0600,-84.2910,10.0,0.09,76.08,0.09,'1111122,1111122,1111122' 
COMPS,ioos:station:USF.COMPS:SHP:1,2016-08-01T05:36:00Z,30.0600,-84.2910,10.0,0.09,78.81,0.09,'1111122,1111122,1111122' 
COMPS,ioos:station:USF.COMPS:SHP:1,2016-08-01T05:42:00Z,30.0600,-84.2910,10.0,0.09,74.59,0.09,'1111122,1111122,1111122' 
COMPS,ioos:station:USF.COMPS:SHP:1,2016-08-01T05:48:00Z,30.0600,-84.2910,10.0,0.09,86.68,0.09,'1111122,1111122,1111122' 
COMPS,ioos:station:USF.COMPS:SHP:1,2016-08-01T05:54:00Z,30.0600,-84.2910,10.0,0.09,79.02,0.09,'1111122,1111122,1111122' 
COMPS,ioos:station:USF.COMPS:SHP:1,2016-08-01T06:00:00Z,30.0600,-84.2910,10.0,0.09,84.71,0.09,'1111122,1111122,1111122' 
COMPS,ioos:station:USF.COMPS:SHP:1,2016-08-01T06:06:00Z,30.0600,-84.2910,10.0,0.1,82.59,0.19,'1111122,1111122,1111122' 
COMPS,ioos:station:USF.COMPS:SHP:1,2016-08-01T06:12:00Z,30.0600,-84.2910,10.0,0.09,65.4,0.09,'1111122,1111122,1111122' 
COMPS,ioos:station:USF.COMPS:SHP:1,2016-08-01T06:18:00Z,30.0600,-84.2910,10.0,0.09,92.02,0.09,'1111122,1111122,1111122' 
COMPS,ioos:station:USF.COMPS:SHP:1,2016-08-01T06:24:00Z,30.0600,-84.2910,10.0,0.42,112.39,1.96,'1111122,1111122,1111122' 
COMPS,ioos:station:USF.COMPS:SHP:1,2016-08-01T06:30:00Z,30.0600,-84.2910,10.0,0.27,105.04,1.37,'1111122,1111122,1111122' 
COMPS,ioos:station:USF.COMPS:SHP:1,2016-08-01T06:36:00Z,30.0600,-84.2910,10.0,0.09,108.51,0.09,'1111122,1111122,1111122' 
COMPS,ioos:station:USF.COMPS:SHP:1,2016-08-01T06:42:00Z,30.0600,-84.2910,10.0,0.09,115.05,0.09,'1111122,1111122,1111122' 
COMPS,ioos:station:USF.COMPS:SHP:1,2016-08-01T06:48:00Z,30.0600,-84.2910,10.0,0.09,111.1,0.09,'1111122,1111122,1111122' 
COMPS,ioos:station:USF.COMPS:SHP:1,2016-08-01T06:54:00Z,30.0600,-84.2910,10.0,0.95,113.68,3.23,'1111122,1111122,1111122' 
COMPS,ioos:station:USF.COMPS:SHP:1,2016-08-01T07:00:00Z,30.0600,-84.2910,10.0,1.46,111.88,2.54,'1111122,1111122,1111122' 
COMPS,ioos:station:USF.COMPS:SHP:1,2016-08-01T07:06:00Z,30.0600,-84.2910,10.0,1.8,118.93,3.03,'1111122,1111122,1111122' 
COMPS,ioos:station:USF.COMPS:SHP:1,2016-08-01T07:12:00Z,30.0600,-84.2910,10.0,0.09,99.42,0.09,'1111122,1111122,1111122' 
COMPS,ioos:station:USF.COMPS:SHP:1,2016-08-01T07:18:00Z,30.0600,-84.2910,10.0,1.41,136.47,2.84,'1111122,1111122,1111122' 
COMPS,ioos:station:USF.COMPS:SHP:1,2016-08-01T07:24:00Z,30.0600,-84.2910,10.0,0.9,130.49,2.45,'1111122,1111122,1111122' 
COMPS,ioos:station:USF.COMPS:SHP:1,2016-08-01T07:30:00Z,30.0600,-84.2910,10.0,0.09,128.54,0.09,'1111122,1111122,1111122' 
COMPS,ioos:station:USF.COMPS:SHP:1,2016-08-01T07:36:00Z,30.0600,-84.2910,10.0,0.09,143.98,0.09,'1111122,1111122,1111122' 
COMPS,ioos:station:USF.COMPS:SHP:1,2016-08-01T07:42:00Z,30.0600,-84.2910,10.0,0.4,148.75,3.52,'1111122,1111122,1111122' 
COMPS,ioos:station:USF.COMPS:SHP:1,2016-08-01T07:48:00Z,30.0600,-84.2910,10.0,2.34,146.45,3.13,'1111122,1111122,1111122' 
COMPS,ioos:station:USF.COMPS:SHP:1,2016-08-01T07:54:00Z,30.0600,-84.2910,10.0,2.42,156.35,3.52,'1111122,1111122,1111122' 
COMPS,ioos:station:USF.COMPS:SHP:1,2016-08-01T08:00:00Z,30.0600,-84.2910,10.0,1.92,144.19,2.84,'1111122,1111122,1111122' 
COMPS,ioos:station:USF.COMPS:SHP:1,2016-08-01T08:06:00Z,30.0600,-84.2910,10.0,2.28,154.24,3.13,'1111122,1111122,1111122' 
COMPS,ioos:station:USF.COMPS:SHP:1,2016-08-01T08:12:00Z,30.0600,-84.2910,10.0,0.18,141.68,1.86,'1111122,1111122,1111122' 
COMPS,ioos:station:USF.COMPS:SHP:1,2016-08-01T08:18:00Z,30.0600,-84.2910,10.0,0.1,129.43,0.19,'1111122,1111122,1111122' 
COMPS,ioos:station:USF.COMPS:SHP:1,2016-08-01T08:24:00Z,30.0600,-84.2910,10.0,0.09,123.06,0.09,'1111122,1111122,1111122' 
COMPS,ioos:station:USF.COMPS:SHP:1,2016-08-01T08:30:00Z,30.0600,-84.2910,10.0,0.09,84.17,0.09,'1111122,1111122,1111122' 
COMPS,ioos:station:USF.COMPS:SHP:1,2016-08-01T08:36:00Z,30.0600,-84.2910,10.0,0.09,18.64,0.09,'1111122,1111122,1111122' 
COMPS,ioos:station:USF.COMPS:SHP:1,2016-08-01T08:42:00Z,30.0600,-84.2910,10.0,0.09,31.52,0.09,'1111122,1111122,1111122' 
COMPS,ioos:station:USF.COMPS:SHP:1,2016-08-01T08:48:00Z,30.0600,-84.2910,10.0,0.09,50.27,0.09,'1111122,1111122,1111122' 
COMPS,ioos:station:USF.COMPS:SHP:1,2016-08-01T08:54:00Z,30.0600,-84.2910,10.0,0.09,41.64,0.09,'1111122,1111122,1111122' 
COMPS,ioos:station:USF.COMPS:SHP:1,2016-08-01T09:00:00Z,30.0600,-84.2910,10.0,0.09,45.74,0.09,'1111122,1111122,1111122' 
COMPS,ioos:station:USF.COMPS:SHP:1,2016-08-01T09:06:00Z,30.0600,-84.2910,10.0,0.09,39.09,0.09,'1111122,1111122,1111122' 
COMPS,ioos:station:USF.COMPS:SHP:1,2016-08-01T09:12:00Z,30.0600,-84.2910,10.0,0.22,57.56,1.96,'1111122,1111122,1111122' 
COMPS,ioos:station:USF.COMPS:SHP:1,2016-08-01T09:18:00Z,30.0600,-84.2910,10.0,0.11,66.3,0.58,'1111122,1111122,1111122' 
COMPS,ioos:station:USF.COMPS:SHP:1,2016-08-01T09:24:00Z,30.0600,-84.2910,10.0,0.59,98.33,3.03,'1111122,1111122,1111122' 
COMPS,ioos:station:USF.COMPS:SHP:1,2016-08-01T09:30:00Z,30.0600,-84.2910,10.0,0.6,106.9,3.03,'1111122,1111122,1111122' 
COMPS,ioos:station:USF.COMPS:SHP:1,2016-08-01T09:36:00Z,30.0600,-84.2910,10.0,0.51,11.99,2.84,'1111122,1111122,1111122' 
COMPS,ioos:station:USF.COMPS:SHP:1,2016-08-01T09:42:00Z,30.0600,-84.2910,10.0,0.49,316.27,1.96,'1111122,1111122,1111122' 
COMPS,ioos:station:USF.COMPS:SHP:1,2016-08-01T09:48:00Z,30.0600,-84.2910,10.0,0.09,320.58,0.09,'1111122,1111122,1111122' 
COMPS,ioos:station:USF.COMPS:SHP:1,2016-08-01T09:54:00Z,30.0600,-84.2910,10.0,0.09,353.28,0.09,'1111122,1111122,1111122' 
COMPS,ioos:station:USF.COMPS:SHP:1,2016-08-01T10:00:00Z,30.0600,-84.2910,10.0,0.09,21.75,0.09,'1111122,1111122,1111122' 
COMPS,ioos:station:USF.COMPS:SHP:1,2016-08-01T10:06:00Z,30.0600,-84.2910,10.0,0.09,40.82,0.09,'1111122,1111122,1111122' 
COMPS,ioos:station:USF.COMPS:SHP:1,2016-08-01T10:12:00Z,30.0600,-84.2910,10.0,0.09,21.38,0.09,'1111122,1111122,1111122' 
COMPS,ioos:station:USF.COMPS:SHP:1,2016-08-01T10:18:00Z,30.0600,-84.2910,10.0,0.09,15.79,0.09,'1111122,1111122,1111122' 
COMPS,ioos:station:USF.COMPS:SHP:1,2016-08-01T10:24:00Z,30.0600,-84.2910,10.0,0.09,57.44,0.09,'1111122,1111122,1111122' 
COMPS,ioos:station:USF.COMPS:SHP:1,2016-08-01T10:30:00Z,30.0600,-84.2910,10.0,0.09,37.35,0.09,'1111122,1111122,1111122' 
COMPS,ioos:station:USF.COMPS:SHP:1,2016-08-01T10:36:00Z,30.0600,-84.2910,10.0,0.1,19.24,0.19,'1111122,1111122,1111122' 
COMPS,ioos:station:USF.COMPS:SHP:1,2016-08-01T10:42:00Z,30.0600,-84.2910,10.0,0.09,36.5,0.09,'1111122,1111122,1111122' 
COMPS,ioos:station:USF.COMPS:SHP:1,2016-08-01T10:48:00Z,30.0600,-84.2910,10.0,0.09,53.96,0.09,'1111122,1111122,1111122' 
COMPS,ioos:station:USF.COMPS:SHP:1,2016-08-01T10:54:00Z,30.0600,-84.2910,10.0,0.31,80.45,3.52,'1111122,1111122,1111122' 
COMPS,ioos:station:USF.COMPS:SHP:1,2016-08-01T11:00:00Z,30.0600,-84.2910,10.0,5.83,143.54,7.35,'1111122,1111122,1111122' 
COMPS,ioos:station:USF.COMPS:SHP:1,2016-08-01T11:06:00Z,30.0600,-84.2910,10.0,8.51,146.93,10.68,'1111122,1111122,1111122' 
COMPS,ioos:station:USF.COMPS:SHP:1,2016-08-01T11:12:00Z,30.0600,-84.2910,10.0,9.12,159.3,10.87,'1111122,1111122,1111122' 
COMPS,ioos:station:USF.COMPS:SHP:1,2016-08-01T11:18:00Z,30.0600,-84.2910,10.0,8.17,179.33,9.99,'1111122,1111122,1111122' 
COMPS,ioos:station:USF.COMPS:SHP:1,2016-08-01T11:24:00Z,30.0600,-84.2910,10.0,7.56,222.21,10.38,'1111122,1111122,1111122' 
COMPS,ioos:station:USF.COMPS:SHP:1,2016-08-01T11:30:00Z,30.0600,-84.2910,10.0,4.81,241.51,7.05,'1111122,1111122,1111122' 
COMPS,ioos:station:USF.COMPS:SHP:1,2016-08-01T11:36:00Z,30.0600,-84.2910,10.0,4.2,258.91,5.87,'1111122,1111122,1111122' 
COMPS,ioos:station:USF.COMPS:SHP:1,2016-08-01T11:42:00Z,30.0600,-84.2910,10.0,4.1,267.89,5.78,'1111122,1111122,1111122' 
COMPS,ioos:station:USF.COMPS:SHP:1,2016-08-01T11:48:00Z,30.0600,-84.2910,10.0,1.02,269.31,3.13,'1111122,1111122,1111122' 
COMPS,ioos:station:USF.COMPS:SHP:1,2016-08-01T11:54:00Z,30.0600,-84.2910,10.0,0.09,292.53,0.09,'1111122,1111122,1111122' 
COMPS,ioos:station:USF.COMPS:SHP:1,2016-08-01T12:00:00Z,30.0600,-84.2910,10.0,0.09,0.03,0.09,'1111122,1111122,1111122' 
COMPS,ioos:station:USF.COMPS:SHP:1,2016-08-01T12:06:00Z,30.0600,-84.2910,10.0,0.09,0.12,0.09,'1111122,1111122,1111122' 
COMPS,ioos:station:USF.COMPS:SHP:1,2016-08-01T12:12:00Z,30.0600,-84.2910,10.0,0.09,344.18,0.09,'1111122,1111122,1111122' 
COMPS,ioos:station:USF.COMPS:SHP:1,2016-08-01T12:18:00Z,30.0600,-84.2910,10.0,0.09,291.99,0.09,'1111122,1111122,1111122' 
COMPS,ioos:station:USF.COMPS:SHP:1,2016-08-01T12:24:00Z,30.0600,-84.2910,10.0,0.09,259.17,0.09,'1111122,1111122,1111122' 
COMPS,ioos:station:USF.COMPS:SHP:1,2016-08-01T12:30:00Z,30.0600,-84.2910,10.0,0.15,248.92,1.27,'1111122,1111122,1111122' 
COMPS,ioos:station:USF.COMPS:SHP:1,2016-08-01T12:36:00Z,30.0600,-84.2910,10.0,2.41,246.5,4.6,'1111122,1111122,1111122' 
COMPS,ioos:station:USF.COMPS:SHP:1,2016-08-01T12:42:00Z,30.0600,-84.2910,10.0,4.72,244.25,7.35,'1111122,1111122,1111122' 
COMPS,ioos:station:USF.COMPS:SHP:1,2016-08-01T12:48:00Z,30.0600,-84.2910,10.0,5.53,241.66,7.44,'1111122,1111122,1111122' 
COMPS,ioos:station:USF.COMPS:SHP:1,2016-08-01T12:54:00Z,30.0600,-84.2910,10.0,4.81,230.17,6.07,'1111122,1111122,1111122' 
COMPS,ioos:station:USF.COMPS:SHP:1,2016-08-01T13:00:00Z,30.0600,-84.2910,10.0,4.39,225.55,5.39,'1111122,1111122,1111122' 
COMPS,ioos:station:USF.COMPS:SHP:1,2016-08-01T13:06:00Z,30.0600,-84.2910,10.0,4.48,230.89,6.46,'1111122,1111122,1111122' 
COMPS,ioos:station:USF.COMPS:SHP:1,2016-08-01T13:12:00Z,30.0600,-84.2910,10.0,5.61,229.67,6.66,'1111122,1111122,1111122' 
COMPS,ioos:station:USF.COMPS:SHP:1,2016-08-01T13:18:00Z,30.0600,-84.2910,10.0,5.38,226.85,6.37,'1111122,1111122,1111122' 
COMPS,ioos:station:USF.COMPS:SHP:1,2016-08-01T13:24:00Z,30.0600,-84.2910,10.0,5.12,215.45,6.76,'1111122,1111122,1111122' 
COMPS,ioos:station:USF.COMPS:SHP:1,2016-08-01T13:30:00Z,30.0600,-84.2910,10.0,3.78,221.95,5.09,'1111122,1111122,1111122' 
COMPS,ioos:station:USF.COMPS:SHP:1,2016-08-01T13:36:00Z,30.0600,-84.2910,10.0,3.35,223.92,4.7,'1111122,1111122,1111122' 
COMPS,ioos:station:USF.COMPS:SHP:1,2016-08-01T13:42:00Z,30.0600,-84.2910,10.0,2.93,221.77,4.01,'1111122,1111122,1111122' 
COMPS,ioos:station:USF.COMPS:SHP:1,2016-08-01T13:48:00Z,30.0600,-84.2910,10.0,1.4,230.47,2.54,'1111122,1111122,1111122' 
COMPS,ioos:station:USF.COMPS:SHP:1,2016-08-01T13:54:00Z,30.0600,-84.2910,10.0,0.25,244.29,1.76,'1111122,1111122,1111122' 
COMPS,ioos:station:USF.COMPS:SHP:1,2016-08-01T14:00:00Z,30.0600,-84.2910,10.0,0.09,287.4,0.09,'1111122,1111122,1111122' 
COMPS,ioos:station:USF.COMPS:SHP:1,2016-08-01T14:06:00Z,30.0600,-84.2910,10.0,0.09,323.63,0.09,'1111122,1111122,1111122' 
COMPS,ioos:station:USF.COMPS:SHP:1,2016-08-01T14:12:00Z,30.0600,-84.2910,10.0,0.09,339.29,0.09,'1111122,1111122,1111122' 
COMPS,ioos:station:USF.COMPS:SHP:1,2016-08-01T14:18:00Z,30.0600,-84.2910,10.0,0.09,324.35,0.09,'1111122,1111122,1111122' 
COMPS,ioos:station:USF.COMPS:SHP:1,2016-08-01T14:24:00Z,30.0600,-84.2910,10.0,0.09,288.47,0.09,'1111122,1111122,1111122' 
COMPS,ioos:station:USF.COMPS:SHP:1,2016-08-01T14:30:00Z,30.0600,-84.2910,10.0,0.09,258.64,0.09,'1111122,1111122,1111122' 
COMPS,ioos:station:USF.COMPS:SHP:1,2016-08-01T14:36:00Z,30.0600,-84.2910,10.0,0.09,223.39,0.09,'1111122,1111122,1111122' 
COMPS,ioos:station:USF.COMPS:SHP:1,2016-08-01T14:42:00Z,30.0600,-84.2910,10.0,0.09,238.81,0.09,'1111122,1111122,1111122' 
COMPS,ioos:station:USF.COMPS:SHP:1,2016-08-01T14:48:00Z,30.0600,-84.2910,10.0,0.09,236.15,0.09,'1111122,1111122,1111122' 
COMPS,ioos:station:USF.COMPS:SHP:1,2016-08-01T14:54:00Z,30.0600,-84.2910,10.0,0.09,255.89,0.09,'1111122,1111122,1111122' 
COMPS,ioos:station:USF.COMPS:SHP:1,2016-08-01T15:00:00Z,30.0600,-84.2910,10.0,0.09,236.98,0.09,'1111122,1111122,1111122' 
COMPS,ioos:station:USF.COMPS:SHP:1,2016-08-01T15:06:00Z,30.0600,-84.2910,10.0,0.09,250.01,0.09,'1111122,1111122,1111122' 
COMPS,ioos:station:USF.COMPS:SHP:1,2016-08-01T15:12:00Z,30.0600,-84.2910,10.0,0.09,235.27,0.09,'1111122,1111122,1111122' 
COMPS,ioos:station:USF.COMPS:SHP:1,2016-08-01T15:18:00Z,30.0600,-84.2910,10.0,0.09,226.79,0.09,'1111122,1111122,1111122' 
COMPS,ioos:station:USF.COMPS:SHP:1,2016-08-01T15:24:00Z,30.0600,-84.2910,10.0,0.09,209.66,0.09,'1111122,1111122,1111122' 
COMPS,ioos:station:USF.COMPS:SHP:1,2016-08-01T15:30:00Z,30.0600,-84.2910,10.0,0.21,218.44,1.37,'1111122,1111122,1111122' 
COMPS,ioos:station:USF.COMPS:SHP:1,2016-08-01T15:36:00Z,30.0600,-84.2910,10.0,1.18,218.59,3.03,'1111122,1111122,1111122' 
COMPS,ioos:station:USF.COMPS:SHP:1,2016-08-01T15:42:00Z,30.0600,-84.2910,10.0,0.14,216.59,1.07,'1111122,1111122,1111122' 
COMPS,ioos:station:USF.COMPS:SHP:1,2016-08-01T15:48:00Z,30.0600,-84.2910,10.0,0.25,206.05,1.86,'1111122,1111122,1111122' 
COMPS,ioos:station:USF.COMPS:SHP:1,2016-08-01T15:54:00Z,30.0600,-84.2910,10.0,0.09,214.53,0.09,'1111122,1111122,1111122' 
COMPS,ioos:station:USF.COMPS:SHP:1,2016-08-01T16:00:00Z,30.0600,-84.2910,10.0,0.1,208.35,0.19,'1111122,1111122,1111122' 
COMPS,ioos:station:USF.COMPS:SHP:1,2016-08-01T16:06:00Z,30.0600,-84.2910,10.0,0.09,187.69,0.09,'1111122,1111122,1111122' 
COMPS,ioos:station:USF.COMPS:SHP:1,2016-08-01T16:12:00Z,30.0600,-84.2910,10.0,0.25,207.94,2.45,'1111122,1111122,1111122' 
COMPS,ioos:station:USF.COMPS:SHP:1,2016-08-01T16:18:00Z,30.0600,-84.2910,10.0,0.41,191.78,1.76,'1111122,1111122,1111122' 
COMPS,ioos:station:USF.COMPS:SHP:1,2016-08-01T16:24:00Z,30.0600,-84.2910,10.0,0.17,205.98,1.37,'1111122,1111122,1111122' 
COMPS,ioos:station:USF.COMPS:SHP:1,2016-08-01T16:30:00Z,30.0600,-84.2910,10.0,0.29,193.03,2.15,'1111122,1111122,1111122' 
COMPS,ioos:station:USF.COMPS:SHP:1,2016-08-01T16:36:00Z,30.0600,-84.2910,10.0,0.95,191.51,2.64,'1111122,1111122,1111122' 
COMPS,ioos:station:USF.COMPS:SHP:1,2016-08-01T16:42:00Z,30.0600,-84.2910,10.0,2.06,175.86,3.43,'1111122,1111122,1111122' 
COMPS,ioos:station:USF.COMPS:SHP:1,2016-08-01T16:48:00Z,30.0600,-84.2910,10.0,2.32,173.45,3.72,'1111122,1111122,1111122' 
COMPS,ioos:station:USF.COMPS:SHP:1,2016-08-01T16:54:00Z,30.0600,-84.2910,10.0,2.77,177.07,4.11,'1111122,1111122,1111122' 
COMPS,ioos:station:USF.COMPS:SHP:1,2016-08-01T17:00:00Z,30.0600,-84.2910,10.0,1.97,184.26,3.92,'1111122,1111122,1111122' 
COMPS,ioos:station:USF.COMPS:SHP:1,2016-08-01T17:06:00Z,30.0600,-84.2910,10.0,2.88,177.41,4.11,'1111122,1111122,1111122' 
COMPS,ioos:station:USF.COMPS:SHP:1,2016-08-01T17:12:00Z,30.0600,-84.2910,10.0,3.12,179.56,4.31,'1111122,1111122,1111122' 
COMPS,ioos:station:USF.COMPS:SHP:1,2016-08-01T17:18:00Z,30.0600,-84.2910,10.0,2.43,178.82,4.9,'1111122,1111122,1111122' 
COMPS,ioos:station:USF.COMPS:SHP:1,2016-08-01T17:24:00Z,30.0600,-84.2910,10.0,3.85,175.15,5.78,'1111122,1111122,1111122' 
COMPS,ioos:station:USF.COMPS:SHP:1,2016-08-01T17:30:00Z,30.0600,-84.2910,10.0,3.41,175.75,4.99,'1111122,1111122,1111122' 
COMPS,ioos:station:USF.COMPS:SHP:1,2016-08-01T17:36:00Z,30.0600,-84.2910,10.0,4.03,172.56,5.39,'1111122,1111122,1111122' 
COMPS,ioos:station:USF.COMPS:SHP:1,2016-08-01T17:42:00Z,30.0600,-84.2910,10.0,2.9,191.41,4.8,'1111122,1111122,1111122' 
COMPS,ioos:station:USF.COMPS:SHP:1,2016-08-01T17:48:00Z,30.0600,-84.2910,10.0,3.45,186.82,5.48,'1111122,1111122,1111122' 
COMPS,ioos:station:USF.COMPS:SHP:1,2016-08-01T17:54:00Z,30.0600,-84.2910,10.0,2.85,202.83,4.8,'1111122,1111122,1111122' 
COMPS,ioos:station:USF.COMPS:SHP:1,2016-08-01T18:00:00Z,30.0600,-84.2910,10.0,4.79,305.56,7.44,'1111122,1111122,1111122' 
COMPS,ioos:station:USF.COMPS:SHP:1,2016-08-01T18:06:00Z,30.0600,-84.2910,10.0,5.73,310.17,8.23,'1111122,1111122,1111122' 
COMPS,ioos:station:USF.COMPS:SHP:1,2016-08-01T18:12:00Z,30.0600,-84.2910,10.0,4.78,318.88,6.85,'1111122,1111122,1111122' 
COMPS,ioos:station:USF.COMPS:SHP:1,2016-08-01T18:18:00Z,30.0600,-84.2910,10.0,4.45,322.08,6.07,'1111122,1111122,1111122' 
COMPS,ioos:station:USF.COMPS:SHP:1,2016-08-01T18:24:00Z,30.0600,-84.2910,10.0,4.37,324.27,5.68,'1111122,1111122,1111122' 
COMPS,ioos:station:USF.COMPS:SHP:1,2016-08-01T18:30:00Z,30.0600,-84.2910,10.0,3.81,329.35,4.9,'1111122,1111122,1111122' 
COMPS,ioos:station:USF.COMPS:SHP:1,2016-08-01T18:36:00Z,30.0600,-84.2910,10.0,2.58,350.36,5.48,'1111122,1111122,1111122' 
COMPS,ioos:station:USF.COMPS:SHP:1,2016-08-01T18:42:00Z,30.0600,-84.2910,10.0,2.64,328.45,4.31,'1111122,1111122,1111122' 
COMPS,ioos:station:USF.COMPS:SHP:1,2016-08-01T18:48:00Z,30.0600,-84.2910,10.0,1.39,332.77,4.6,'1111122,1111122,1111122' 
COMPS,ioos:station:USF.COMPS:SHP:1,2016-08-01T18:54:00Z,30.0600,-84.2910,10.0,1.76,306.6,2.84,'1111122,1111122,1111122' 
COMPS,ioos:station:USF.COMPS:SHP:1,2016-08-01T19:00:00Z,30.0600,-84.2910,10.0,2.53,273.05,3.52,'1111122,1111122,1111122' 
COMPS,ioos:station:USF.COMPS:SHP:1,2016-08-01T19:06:00Z,30.0600,-84.2910,10.0,2.51,307.54,3.23,'1111122,1111122,1111122' 
COMPS,ioos:station:USF.COMPS:SHP:1,2016-08-01T19:12:00Z,30.0600,-84.2910,10.0,2.57,325.59,3.43,'1111122,1111122,1111122' 
COMPS,ioos:station:USF.COMPS:SHP:1,2016-08-01T19:18:00Z,30.0600,-84.2910,10.0,2.69,339.06,4.01,'1111122,1111122,1111122' 
COMPS,ioos:station:USF.COMPS:SHP:1,2016-08-01T19:24:00Z,30.0600,-84.2910,10.0,2.42,344.0,3.62,'1111122,1111122,1111122' 
COMPS,ioos:station:USF.COMPS:SHP:1,2016-08-01T19:30:00Z,30.0600,-84.2910,10.0,2.81,346.28,4.31,'1111122,1111122,1111122' 